Home   Weather   Denver   Past weeks

Flag for USA Past Weather in Denver, Colorado, USA — Yesterday and Last 2 Weeks

Now
65 °F

Broken clouds.


Feels Like: 65 °F
Forecast: 54 / 74 °F
Wind: 6 mph from Northeast

Location: Buckley Air Force Base

Current Time: Aug 16, 2017 at 11:27:47 am

Latest Report: Aug 16, 2017 at 10:58 am


Visibility: 10 mi

Pressure: 29.99 "Hg (24.89 "Hg at 1593m altitude)

Humidity: 58%

Dew Point: 50 °F

Location of DenverLocation

Past Weather in Denver — Graph

°F

Denver Temperature Yesterday

Maximum temperature yesterday: 81 °F (at 2:58 pm)
Minimum temperature yesterday: 56 °F (at 10:58 pm)
Average temperature yesterday: 66 °F

High & Low Weather Summary for the Past Weeks

 TemperatureHumidityPressure
High89 °F (Aug 2, 2:58 pm)100% (Aug 3, 4:58 am)30.22 "Hg (Aug 3, 4:58 am)
Low52 °F (Aug 4, 3:23 am)17% (Aug 1, 2:58 pm)29.67 "Hg (Aug 15, 3:58 pm)
Average66 °F67%29.98 "Hg
* Reported Aug 1 9:58 am — Aug 16 9:58 am, Denver. Weather by CustomWeather, © 2017

Note: Actual official high and low records may vary slightly from our data, if they occured in-between our weather recording intervals... More about our weather records

Advertising

Denver Weather History for the Previous 24 Hours

Scroll right to see more
 ConditionsComfort  
Time TempWeatherWind HumidityBarometerVisibility
9:58 am
Wed, Aug 16
64 °FBroken clouds.7 mph60%29.99 "Hg10 mi
8:58 am62 °FBroken clouds.3 mph63%29.99 "Hg10 mi
7:58 am60 °FBroken clouds.6 mph75%29.94 "Hg10 mi
6:58 am56 °FPartly sunny.7 mph87%29.92 "Hg10 mi
5:58 am56 °FPartly cloudy.5 mph88%29.91 "Hg10 mi
4:58 am56 °FPartly cloudy.3 mph85%29.88 "Hg10 mi
3:58 am57 °FPartly cloudy.6 mph88%29.85 "Hg10 mi
2:58 am56 °FPartly cloudy.5 mph90%29.86 "Hg10 mi
1:58 am56 °FPartly cloudy.No wind88%29.86 "Hg10 mi
12:58 am56 °FOvercast.8 mph89%29.86 "Hg10 mi
11:58 pm
Tue, Aug 15
56 °FPartly cloudy.12 mph97%29.88 "Hg10 mi
10:58 pm56 °FMostly cloudy.9 mph94%29.90 "Hg10 mi
10:22 pm57 °FLight rain. Mostly cloudy.7 mph82%29.90 "Hg10 mi
9:58 pm57 °FPassing clouds.12 mph80%29.89 "Hg10 mi
8:58 pm58 °FPassing clouds.16 mph78%29.87 "Hg10 mi
7:58 pm70 °FPassing clouds.25 mph52%29.80 "Hg10 mi
6:58 pm73 °FBroken clouds.5 mph41%29.68 "Hg10 mi
5:58 pm72 °FBroken clouds.13 mph42%29.71 "Hg10 mi
4:58 pm77 °FThundershowers. Broken clouds.5 mph38%29.68 "Hg10 mi
3:58 pm80 °FBroken clouds.20 mph40%29.67 "Hg10 mi
2:58 pm81 °FBroken clouds.7 mph37%29.70 "Hg10 mi
1:58 pm80 °FPartly sunny.3 mph35%29.70 "Hg10 mi
12:58 pm78 °FBroken clouds.8 mph41%29.72 "Hg10 mi
11:58 am76 °FBroken clouds.8 mph47%29.75 "Hg10 mi
Weather by CustomWeather, © 2017

See weather overviewHow to use our weather pages